Flag for U.S.A. Weather past 2 weeks in Albuquerque, New Mexico, U.S.A.

Now
48 °F

Partly cloudy.


Feels Like: 47 °F
Forecast: 48 / 76 °F
Wind: 3 mph from Southeast

Location: Albuquerque International Airport


UV Index: 5 (Moderate)

Visibility: 10 mi


Pressure: 29.99 "Hg

Humidity: 89%

Dew point: 45 °F

Location of AlbuquerqueLocation

Historic Weather in Albuquerque

°F

Albuquerque temperature yesterday

Maximum temperature yesterday: 61 °F (at 4:52 PM)
Minimum temperature yesterday: 49 °F (at 6:52 AM)
Average temperature yesterday: 55 °F

Past Weeks' High & Low Weather Summary

 TemperatureHumidityPressure
High80 °F (Apr 9, 4:52 PM)93% (Apr 20, 2:52 AM)30.25 "Hg (Apr 20, 2:52 AM)
Low34 °F (Apr 15, 5:52 AM)5% (Apr 10, 1:52 PM)29.42 "Hg (Apr 13, 3:52 PM)
Average57 °F27%29.90 "Hg
* Reported Apr 5 3:52 AM — Apr 20 3:52 AM, Albuquerque, Weather by CustomWeather, © 2014

Note: Actual official high and low records may vary slightly from our data, if they occured in-between our weather recording intervals... More about our weather records

Advertising

Historic Weather Conditions — Data for Previous 24 hours

 ConditionsComfort  
Time TempWeatherWind HumidityBarometerVisibility
3:52 AM
Apr 20
48 °FPartly cloudy.3 mph89%29.99 "Hg10 mi
2:52 AM48 °FMostly cloudy.7 mph93%30.01 "Hg10 mi
1:52 AM50 °FOvercast.6 mph86%30.02 "Hg10 mi
12:52 AM52 °FOvercast.3 mph77%30.01 "Hg10 mi
11:52 PM
Apr 19
52 °FLight rain. Passing clouds.5 mph77%30.01 "Hg10 mi
10:52 PM52 °FPartly cloudy.8 mph77%30.00 "Hg10 mi
9:52 PM54 °FPassing clouds.6 mph72%29.99 "Hg10 mi
8:52 PM50 °FPassing clouds.13 mph86%30.01 "Hg10 mi
7:52 PM56 °FLight rain. Mostly cloudy.13 mph65%29.99 "Hg10 mi
6:52 PM59 °FPartly sunny.No wind51%29.96 "Hg10 mi
5:52 PM60 °FPartly sunny.7 mph52%29.93 "Hg10 mi
4:52 PM61 °FBroken clouds.5 mph48%29.92 "Hg10 mi
3:52 PM59 °FBroken clouds.10 mph56%29.93 "Hg10 mi
2:52 PM56 °FBroken clouds.14 mph62%29.96 "Hg10 mi
1:52 PM56 °FOvercast.16 mph70%29.98 "Hg10 mi
12:52 PM57 °FBroken clouds.13 mph58%29.98 "Hg10 mi
11:52 AM57 °FBroken clouds.6 mph58%29.98 "Hg10 mi
10:52 AM53 °FBroken clouds.9 mph72%30.01 "Hg10 mi
9:52 AM53 °FLight rain. Mostly cloudy.25 mph59%30.02 "Hg10 mi
8:52 AM58 °FBroken clouds.3 mph51%29.95 "Hg10 mi
7:52 AM54 °FBroken clouds.5 mph55%29.95 "Hg10 mi
6:52 AM49 °FPassing clouds.6 mph69%29.95 "Hg10 mi
5:52 AM54 °FPassing clouds.No wind57%29.90 "Hg10 mi
Weather by CustomWeather, © 2014

See weather overview